COSMOS 252 DEB, 3788

Orbit data source: Space-Track

COSMOS 252 DEB, 3788 is space debris in LEO originally from a launch on Fri, 01 Nov 1968 UTC launched from the Tyuratam Missile And Space Complex (TTMTR). Debris objects in space refer to the collection of defunct objects orbiting the Earth. Examples of debris include non-operational satellites, rocket bodies, and fragments generated from explosions, collisions, or faulty payload assembly.

Loading next visibility...
Identifier
3788, 1968-097BA
Orbit
LEO
Country
Flag of CISCIS
Related business
Manufacturer
Unknown
Mission
Spacecraft
Bus & Motor
Unknown
Mass
Unknown
Launch date (UTC)
1968-11-01 (58 years ago)
Launch vehicle
Unknown
Launch site
Tyuratam Missile And Space Complex (TTMTR)
Object type
Payload
Rocket body
Debris
Shape & HBR
Unknown shape, 0.1 m
Radar Cross Section
Medium (>0.1 m² and <1 m²)

Expand to show TLE details & history
Last TLE update: 14 hours ago

TLE from 14 hours ago
0 COSMOS 252 DEB
1 03788U 68097BA  26175.06918194 -.00000024  00000-0  35961-3 0  9999
2 03788  61.8747  98.2188 0579675  21.3232 358.6957 11.88468009501249
Epoch: 2026-06-24T01:39Z
TLE epoch observation values (Epoch: 2026-06-24T01:39:37.319Z)
Latitude
17.44425°
Longitude
170.70128°
Altitude
1,263.782 km
Speed
7.432 km/s
True Right ascension
07h 11m 21s
True Declination
17° 21' 10"
Sunlit
Object was in daylight at epoch
Visualization orbit readout
Latitude
Unknown
Longitude
Unknown
Altitude
Unknown
Speed
Unknown
Apparent Right ascension
Unknown
Apparent Declination
Unknown
Sunlit
N/A
Visualization observer readout
Local Sidereal Time
03:13:02
Azimuth
Unknown
Elevation
Unknown
Doppler factor
Unknown
Orbital elements
Apogee altitude
2,202.129 km
Perigee altitude
1,261.879 km
Semi-major axis
8,110.141 km
Eccentricity
0.05797
Inclination
61.8747°
RAAN
98.2188°
Arg. of periapsis
21.3232°
True anomaly
358.53273°
Mean anomaly
358.6957°
Eccentric anomaly
358.61545°
Mean motion
2.97167 °/min
Orbital period
121.14 mins
BSTAR
0.00035961
Loading maneuver chart data...
Computing Atmospheric mass density...

Documentation

Showing up to 5 results
|